GFSFLT2_sfc_thetae_000.txt.gz
Theta_e
308 308 308 309 309 310 310 312 314 314 316 315 320 320 319 318 318 318 318 319 320 322 323 323 322 323 323 323 323 324 326 325
309 308 307 308 309 309 311 312 313 313 314 317 319 319 319 318 319 319 319 321 321 322 323 323 323 324 323 322 322 324 326 326
309 309 307 306 307 309 312 312 311 312 313 318 318 318 319 319 319 320 320 322 322 323 324 324 324 324 323 322 323 324 325 325
310 310 309 307 308 308 311 312 311 313 312 317 318 318 319 319 319 319 320 320 322 323 324 324 324 325 306 312 320 323 326 326
310 311 310 309 309 310 310 311 311 312 312 318 318 318 319 318 318 318 318 318 320 321 321 323 323 321 302 306 311 325 325 324
312 312 311 310 311 310 311 311 310 311 311 316 317 317 318 317 317 317 315 315 318 318 318 321 321 317 302 303 310 324 324 325
313 313 312 309 311 312 311 310 310 311 311 314 315 316 317 316 316 315 314 314 314 315 316 320 321 317 300 301 317 325 324 325
313 314 312 310 311 312 311 309 309 310 311 313 313 316 317 316 315 314 313 314 314 313 314 319 314 319 300 302 316 324 321 321
314 313 312 312 310 312 311 309 309 312 313 313 312 316 316 316 315 314 313 312 312 312 311 312 316 316 312 300 306 322 320 319
314 313 313 312 311 313 311 309 312 312 313 313 311 313 317 316 316 314 313 312 310 309 309 308 308 312 305 300 301 308 310 319
314 314 313 311 312 314 311 312 310 311 312 312 310 310 318 316 316 314 312 312 310 309 309 309 309 306 306 301 299 299 302 316
314 313 311 310 312 314 315 312 311 311 311 311 310 309 313 317 317 316 314 312 311 310 310 310 310 307 306 306 309 307 301 307
314 313 312 312 312 313 313 312 310 310 311 310 310 310 312 317 317 316 317 317 313 313 312 312 310 309 308 301 305 309 311 306
313 314 312 312 312 313 313 312 311 310 309 308 309 310 310 316 316 311 295 300 302 299 300 310 313 305 298 295 294 295 295 294
314 314 313 313 313 313 314 313 312 310 310 308 307 308 311 314 316 315 314 306 298 299 299 299 301 305 296 295 293 292 292 296
316 315 314 313 313 313 314 314 313 311 311 301 308 309 312 314 316 317 317 316 314 314 298 301 297 296 295 293 291 294 298 299
316 315 315 314 314 314 315 316 314 312 311 309 310 310 313 313 316 317 316 317 316 313 303 297 294 293 293 291 292 307 304 303
315 314 315 315 315 316 316 316 316 314 313 305 306 311 313 315 316 316 315 315 315 313 310 312 299 300 304 302 299 303 305 305
317 317 317 317 317 317 316 317 316 315 314 310 306 312 314 315 316 315 315 315 314 313 314 309 295 307 308 307 304 303 306 307
318 318 319 320 320 319 317 317 317 317 316 313 311 313 314 315 315 316 316 315 315 314 314 308 290 306 308 308 308 307 307 309

GFSFLT2_sfc_thetae_003.txt.gz
Theta_e
317 318 319 321 322 324 324 326 326 325 327 328 332 332 331 331 329 329 329 328 328 329 330 329 329 330 331 331 330 328 328 328
317 318 320 320 322 323 322 323 326 325 326 327 330 330 331 330 329 329 329 330 329 331 331 330 330 330 330 330 329 328 328 329
317 318 319 320 321 322 322 322 324 325 325 327 329 330 329 330 329 329 330 331 330 331 331 330 331 330 328 329 329 328 329 328
317 319 320 320 320 320 321 322 323 325 325 327 327 327 327 329 329 330 330 330 331 331 330 329 330 328 306 313 324 328 330 331
318 319 320 320 320 321 321 323 323 323 324 327 326 327 326 328 328 329 329 329 331 331 330 330 330 329 303 305 311 329 329 330
319 320 322 322 322 322 322 324 322 321 322 326 326 326 326 327 328 327 328 329 330 330 330 331 331 327 301 303 309 328 328 328
322 323 324 323 321 322 321 322 321 321 320 325 325 326 326 326 327 327 326 328 329 328 328 330 330 325 301 302 317 325 326 328
322 324 324 323 323 323 321 321 321 320 320 323 325 325 327 327 329 327 326 329 328 325 327 331 320 325 300 301 318 329 327 328
324 323 322 323 324 323 321 321 320 322 322 322 325 326 328 329 329 327 326 326 325 324 325 327 329 325 318 300 306 324 327 328
323 322 323 324 323 323 322 321 323 324 322 321 323 326 326 326 328 327 325 327 324 323 323 323 326 328 311 300 301 310 314 325
323 322 323 323 323 324 323 323 324 322 322 322 323 323 326 327 327 326 323 325 323 322 321 322 322 324 327 302 299 301 306 327
323 323 322 321 322 323 325 324 322 322 322 323 323 322 324 326 326 325 324 322 321 319 320 321 321 322 325 327 324 319 303 316
322 323 322 321 322 323 325 324 322 322 323 322 322 321 323 325 326 325 324 326 321 322 321 321 322 321 321 316 319 325 326 317
322 322 323 322 321 322 323 323 322 324 322 321 320 319 320 323 325 322 296 302 302 299 304 315 321 308 298 297 298 298 297 296
321 322 323 323 321 322 323 323 322 324 324 324 320 316 319 319 323 324 322 311 300 299 300 300 302 307 295 294 293 293 293 298
322 323 322 322 321 322 323 322 322 323 325 307 320 319 319 319 320 321 322 323 323 323 302 306 297 298 295 292 292 297 307 306
323 323 322 321 321 322 323 322 323 323 323 319 321 320 319 316 320 320 320 321 323 324 324 303 301 294 292 291 292 318 316 315
321 321 321 321 322 323 322 323 323 323 322 309 313 320 319 318 319 320 320 320 320 321 322 322 316 308 316 315 310 316 320 319
325 324 324 324 324 324 322 323 324 322 321 318 310 319 319 319 319 319 320 321 321 320 321 319 302 319 323 323 319 318 320 321
326 325 326 326 325 324 322 323 324 323 322 321 317 319 320 319 322 321 321 320 321 320 321 318 292 317 323 322 321 320 320 322

GFSFLT2_sfc_thetae_006.txt.gz
Theta_e
323 325 325 327 327 327 326 327 327 329 331 332 333 333 333 333 333 334 332 330 330 329 330 329 330 331 333 333 332 328 328 331
323 324 325 326 326 325 324 326 327 328 329 331 332 333 334 334 333 332 332 331 330 332 332 331 331 330 332 332 330 328 330 332
323 323 325 326 325 324 323 325 326 328 328 329 331 333 334 333 332 332 332 332 332 332 332 331 332 331 329 330 329 333 332 330
322 324 325 325 324 323 323 324 325 328 327 328 330 330 331 332 332 332 332 332 332 331 331 331 331 328 307 315 325 331 333 333
323 324 326 326 325 323 323 324 325 326 327 327 328 329 330 331 331 331 331 332 334 332 332 332 331 330 305 306 311 331 334 333
324 326 327 327 325 324 324 325 323 324 326 326 328 328 330 331 332 331 333 334 334 333 333 333 331 326 303 303 309 333 334 333
327 328 329 328 325 324 323 323 322 322 323 326 327 328 329 329 330 333 334 334 334 333 333 333 332 328 302 303 316 328 332 331
328 329 329 327 326 325 324 322 321 321 322 326 328 329 329 329 332 332 335 334 332 331 332 334 321 330 301 302 315 328 331 330
330 330 328 327 326 325 323 322 321 322 323 326 328 330 331 332 334 333 334 332 331 331 332 333 332 327 323 300 305 333 332 329
329 328 328 328 327 325 323 322 323 323 322 324 327 330 329 331 334 332 332 331 331 331 332 331 332 330 314 303 301 312 317 331
329 329 327 327 327 325 323 324 323 323 323 323 326 329 330 332 332 331 328 329 327 328 328 328 330 331 330 301 301 304 308 328
329 329 326 326 327 325 325 326 324 323 323 324 325 327 329 331 330 329 327 325 323 324 326 327 328 330 330 330 328 326 308 323
329 328 327 326 327 326 326 325 324 323 324 324 324 324 328 329 330 329 327 329 322 322 323 326 327 328 329 321 323 330 331 322
328 329 328 327 327 326 326 325 324 324 324 324 322 321 323 327 329 329 297 304 305 303 304 314 323 308 303 303 305 302 299 301
326 328 329 328 327 327 327 326 324 324 328 328 323 317 321 321 324 327 326 316 302 300 301 302 303 306 298 298 297 295 295 300
328 327 329 329 328 327 329 327 325 325 329 308 325 321 321 320 322 323 324 324 324 325 303 308 300 296 294 294 294 300 314 311
329 329 327 329 328 328 330 329 327 325 326 323 324 323 322 318 321 322 322 323 322 323 324 306 302 294 292 291 294 323 323 323
328 326 327 327 328 329 330 330 330 328 327 312 315 322 322 321 321 321 320 321 322 323 323 325 325 313 320 318 314 320 324 322
326 330 330 329 328 330 330 330 333 328 327 325 315 322 321 321 320 321 321 321 320 321 323 322 305 324 325 326 324 324 325 325
323 331 331 331 331 330 330 330 331 329 329 327 323 322 322 321 321 321 321 321 321 321 322 319 296 324 324 324 326 325 324 325

GFSFLT2_sfc_thetae_009.txt.gz
Theta_e
327 328 328 329 330 329 328 329 329 330 331 332 334 333 334 335 334 335 331 330 329 329 330 328 330 332 333 332 330 331 331 332
326 327 328 329 329 327 326 327 328 329 330 331 332 333 333 335 333 332 331 329 329 332 330 331 331 331 332 332 328 331 331 332
325 326 327 328 328 326 326 327 327 329 329 330 332 333 334 333 332 332 331 330 331 332 331 331 332 332 330 333 333 333 329 330
325 326 327 327 326 324 325 326 326 328 328 329 331 331 331 332 332 333 332 333 331 333 331 330 332 329 307 313 323 334 332 332
325 326 328 328 326 325 324 326 326 328 328 329 329 330 330 331 331 330 330 334 336 333 331 332 332 329 306 306 311 334 335 334
326 328 329 328 327 325 326 325 325 326 327 328 329 329 330 330 331 332 333 336 334 333 333 333 332 326 306 305 310 335 336 334
328 330 331 329 326 325 325 323 325 325 326 327 328 330 330 331 330 333 336 337 336 335 334 333 332 328 304 303 316 334 332 333
329 330 331 328 326 326 325 323 323 324 326 328 329 330 330 330 332 334 335 336 334 334 333 334 322 330 304 301 315 333 332 331
332 331 330 328 327 326 324 323 322 325 326 329 330 332 331 334 334 334 334 333 333 335 333 334 333 330 323 302 304 334 333 332
331 330 330 328 327 325 324 323 324 325 325 328 330 332 331 333 335 333 332 333 332 334 333 332 331 332 314 304 303 309 316 332
331 330 330 328 327 326 324 325 324 325 325 328 330 332 331 334 333 330 328 330 330 331 330 329 328 330 328 304 306 305 311 333
331 331 329 326 327 326 326 326 324 324 324 327 329 329 330 332 330 329 326 326 328 328 327 327 328 329 329 329 329 326 309 321
331 330 329 327 327 326 326 326 324 324 326 326 328 328 330 330 331 328 326 331 322 326 328 329 329 328 329 321 323 329 331 323
330 331 331 328 327 326 326 326 325 325 327 325 325 326 328 329 329 329 298 303 304 304 302 315 327 310 305 304 304 302 302 305
329 330 331 330 327 325 326 326 325 325 330 329 324 321 326 329 328 328 326 317 302 305 303 301 303 310 301 300 298 297 299 305
330 330 331 331 328 326 328 327 325 326 332 309 326 323 323 324 328 329 329 327 325 325 305 308 299 298 299 298 296 303 320 313
327 331 331 331 329 328 330 329 328 326 327 325 325 324 322 319 323 325 327 327 327 325 324 307 300 293 293 294 296 324 322 321
321 326 332 330 331 331 330 330 332 328 329 314 317 324 322 321 321 322 322 323 323 323 322 323 321 311 316 316 319 323 323 322
321 324 333 334 331 333 332 331 336 328 327 327 315 323 322 321 321 321 322 321 322 322 323 322 309 322 323 322 321 321 321 322
320 326 337 336 334 333 333 333 336 332 330 328 326 323 322 321 323 321 322 321 321 321 323 320 298 325 323 324 326 325 324 326

GFSFLT2_sfc_thetae_012.txt.gz
Theta_e
327 328 328 329 331 330 330 330 331 331 334 333 334 334 332 335 333 334 334 333 331 332 327 330 331 333 331 329 330 330 331 331
327 327 328 329 330 328 328 328 330 330 332 331 333 331 333 335 333 331 334 331 331 328 330 331 332 332 333 330 330 331 326 329
325 326 328 330 329 327 327 327 328 331 330 330 332 332 333 333 329 331 330 333 331 332 328 329 332 331 326 330 330 327 328 325
325 327 329 329 327 325 326 326 328 330 330 330 332 332 332 331 330 332 333 333 331 330 332 330 331 325 308 316 326 329 329 329
325 327 328 329 327 327 326 326 328 329 329 329 329 331 330 331 330 330 330 330 331 330 330 330 328 323 305 305 315 331 331 329
326 328 330 330 327 327 328 326 326 327 327 328 329 328 329 330 331 330 332 334 333 329 331 332 328 319 305 303 308 333 333 330
329 331 331 330 327 326 326 325 326 326 326 327 328 329 330 329 330 333 333 334 333 331 333 333 328 324 306 302 316 332 331 329
329 331 331 329 329 327 326 323 325 325 326 327 330 330 330 330 333 334 335 336 331 333 333 333 320 325 304 302 311 333 330 329
332 332 330 330 330 328 326 324 324 327 328 328 331 332 334 335 337 337 336 330 332 332 330 332 330 327 316 302 303 331 330 329
331 331 330 330 329 326 325 324 327 327 328 328 331 334 331 333 336 338 336 332 330 331 330 329 330 329 313 304 303 311 316 327
330 331 330 329 328 326 326 326 327 326 328 331 332 332 334 335 333 335 331 333 330 329 329 326 327 327 324 305 305 309 311 327
332 331 329 327 327 327 328 327 325 325 329 332 333 332 334 333 332 330 328 330 329 329 327 326 326 326 326 327 325 319 311 316
332 331 330 327 327 326 328 327 325 327 329 331 332 331 333 333 332 327 328 331 324 328 329 329 326 325 326 320 323 328 327 320
331 333 332 328 327 326 326 326 326 329 327 328 328 328 329 329 329 324 298 303 301 299 301 322 328 314 305 305 306 306 303 304
329 330 332 330 327 325 326 326 326 329 327 327 326 324 327 329 328 328 325 313 300 300 302 306 309 309 302 301 300 300 302 305
324 329 330 332 328 326 326 326 326 327 329 312 327 325 328 327 328 329 328 324 322 322 306 309 303 300 299 298 298 305 317 314
323 325 330 330 329 327 328 326 326 326 328 325 326 325 325 324 328 328 328 327 325 323 317 308 298 295 295 296 299 325 324 323
319 320 323 328 333 332 329 328 329 326 329 314 317 326 323 324 323 325 327 328 326 324 322 320 313 309 316 318 318 324 321 321
319 321 326 336 336 336 334 330 331 326 326 326 314 324 325 321 321 321 322 324 326 326 325 321 304 317 318 319 320 322 322 322
318 321 329 333 331 327 335 336 333 329 327 326 324 324 323 323 321 321 322 322 322 323 323 318 297 319 321 321 319 320 322 323

GFSFLT2_sfc_thetae_015.txt.gz
Theta_e
323 323 324 325 325 325 325 324 325 326 328 329 328 326 327 324 324 326 323 323 321 324 326 328 329 327 326 325 325 325 325 323
322 322 323 324 324 324 323 322 324 326 330 328 326 327 327 325 324 326 323 323 320 325 326 329 328 328 328 326 328 326 325 325
321 321 322 323 320 322 322 321 322 326 328 328 326 326 329 327 327 324 324 321 324 326 326 328 324 323 325 326 327 326 324 324
321 322 323 322 320 319 320 320 321 327 328 326 327 326 329 327 326 326 326 324 326 325 326 324 320 321 307 311 322 326 326 325
322 323 323 321 320 318 318 319 320 326 327 326 327 327 325 324 327 325 324 323 325 325 325 321 317 314 303 305 310 327 325 324
322 323 322 321 319 318 319 319 320 322 324 324 326 326 326 326 325 322 323 323 324 324 323 320 316 312 303 302 310 327 327 326
323 324 323 319 319 319 318 317 319 321 322 323 325 326 325 326 326 322 323 323 323 322 323 319 316 312 304 301 319 326 326 325
324 324 322 319 318 318 317 316 317 319 322 323 327 326 326 325 323 323 324 323 325 325 325 320 314 315 303 301 315 326 323 321
325 323 320 319 319 318 316 315 316 320 323 323 327 325 324 326 325 325 324 324 324 324 322 320 319 316 311 301 307 325 323 321
324 322 321 320 320 319 316 314 318 321 322 325 328 327 329 328 325 325 325 323 322 320 321 320 320 318 309 303 303 315 316 321
325 322 320 319 319 319 317 316 319 321 321 325 325 325 326 326 324 323 323 323 323 321 321 320 318 318 313 304 305 308 311 320
324 322 320 318 318 318 320 318 319 320 324 323 323 326 325 325 324 324 322 322 322 324 321 320 318 318 318 317 314 313 307 309
325 322 320 319 319 318 321 319 318 320 325 324 322 326 326 323 319 316 320 321 325 324 322 322 320 317 319 315 316 319 318 313
324 324 321 321 320 319 321 319 318 320 324 325 323 324 326 324 315 311 298 300 300 309 310 319 322 313 304 304 307 304 302 303
320 321 325 322 321 320 320 320 320 321 321 322 321 320 323 321 319 315 310 308 301 297 303 305 308 307 301 302 300 300 301 306
320 322 323 325 321 320 321 320 319 321 319 309 321 319 321 321 320 320 316 312 310 309 303 305 301 301 300 299 297 302 311 310
317 318 321 323 327 322 322 321 319 322 320 319 319 319 319 319 321 321 321 316 315 312 307 304 296 294 296 296 299 319 318 318
313 314 318 329 324 325 327 320 319 322 321 311 313 318 317 318 319 321 319 319 317 314 311 313 304 304 308 308 309 319 319 320
313 315 318 323 319 323 330 333 320 320 322 317 313 318 317 316 318 315 321 321 320 318 315 312 301 316 316 316 316 318 320 319
312 313 316 317 316 317 326 312 317 322 322 321 318 319 318 316 313 316 315 318 322 321 319 313 295 318 318 319 319 319 321 319

GFSFLT2_sfc_thetae_021.txt.gz
Theta_e
321 322 322 322 321 322 323 322 321 322 322 321 320 320 319 318 318 318 319 317 317 318 319 323 324 323 322 324 324 322 320 320
321 321 322 322 322 322 323 321 322 322 323 321 321 320 321 319 319 318 317 319 318 318 325 325 324 324 325 327 326 324 320 321
321 321 321 321 320 321 322 322 322 322 323 322 322 322 323 320 319 319 318 319 318 325 324 321 320 321 319 323 323 321 320 320
321 322 322 321 321 321 321 321 321 324 324 322 323 323 322 321 319 318 318 318 322 325 322 319 317 318 304 306 319 323 324 323
320 322 322 322 322 321 318 319 321 325 325 324 326 323 322 323 321 319 318 320 323 323 317 316 314 314 301 306 310 323 322 323
321 322 322 321 320 318 317 317 322 325 324 323 324 323 321 323 323 317 317 323 323 319 315 314 314 313 300 306 311 321 323 323
322 323 322 320 317 316 316 318 321 322 322 322 323 322 319 320 318 317 317 317 317 315 314 313 315 316 299 306 317 323 323 322
322 323 321 318 317 315 316 318 319 320 322 323 323 321 320 319 318 317 317 317 317 318 315 315 311 316 300 303 315 324 322 321
321 322 318 318 315 315 314 317 318 321 323 323 322 320 319 319 318 318 318 318 319 317 315 314 316 314 311 302 306 322 323 320
321 320 317 314 316 316 313 316 319 320 320 321 320 319 323 321 319 318 319 318 317 315 313 313 316 314 303 301 301 307 312 321
320 319 314 314 315 316 313 315 317 318 319 319 319 321 321 320 318 318 317 316 316 314 314 316 315 314 314 300 298 299 304 318
318 315 315 313 312 313 315 313 317 319 319 318 319 320 319 319 320 319 318 316 315 316 315 313 313 313 314 314 312 309 304 309
317 317 315 314 313 313 312 315 319 318 319 319 319 319 319 318 317 316 319 318 317 318 316 316 314 313 315 309 311 314 314 310
320 318 315 313 314 313 313 316 320 320 318 319 319 319 318 317 313 309 298 300 303 305 305 312 316 308 299 298 299 298 297 300
316 320 321 316 314 314 315 316 320 320 319 319 319 317 318 315 312 312 312 305 298 298 299 303 306 304 295 296 297 295 297 303
316 317 323 321 316 315 316 316 320 319 319 308 321 320 320 315 312 311 311 309 310 312 298 302 298 296 295 295 294 298 307 307
309 309 311 314 315 313 315 316 319 318 318 319 322 321 321 317 314 311 309 309 310 313 307 301 295 293 292 292 294 313 312 312
305 304 305 307 308 311 309 308 315 318 319 310 314 321 319 317 316 313 310 308 308 311 312 313 303 304 307 307 307 312 313 313
306 303 302 305 303 308 308 304 305 313 316 315 310 320 319 319 318 317 315 311 309 308 311 310 297 315 315 315 313 314 316 317
301 303 299 301 302 305 307 304 302 307 314 314 314 318 319 318 318 318 317 315 313 311 310 308 292 309 318 317 317 317 318 320

GFSFLT2_sfc_thetae_024.txt.gz
Theta_e
321 320 320 320 320 321 320 321 321 322 322 321 320 320 320 320 319 320 321 321 321 322 322 323 326 325 325 325 324 325 323 324
321 320 319 320 322 322 321 320 322 322 322 320 319 320 320 320 320 320 320 321 320 322 326 326 326 326 326 327 327 325 323 324
320 319 319 319 320 321 321 321 321 322 322 321 320 322 322 320 320 319 320 321 321 326 325 323 323 323 319 322 325 324 323 323
320 321 320 320 320 320 321 321 321 323 322 322 323 323 322 321 321 319 320 320 324 326 324 321 320 319 303 308 319 325 324 323
320 321 321 321 321 321 320 320 323 323 323 324 326 323 322 322 320 320 320 320 325 323 320 320 318 318 300 306 311 324 324 323
321 321 321 321 320 320 319 320 323 324 323 324 325 323 322 324 321 319 320 324 324 322 318 317 318 314 301 307 309 325 323 322
321 322 321 319 319 319 318 319 322 325 322 324 324 323 321 322 319 320 320 322 322 319 317 317 319 318 302 305 317 323 323 322
321 321 320 318 317 317 317 318 321 321 322 323 324 323 321 320 320 319 320 320 320 319 317 319 312 318 301 303 317 324 320 320
321 321 319 319 315 316 316 318 320 322 324 323 323 322 321 321 320 321 320 320 320 319 318 318 319 315 311 301 308 323 320 319
322 320 318 316 315 317 316 317 321 322 324 323 322 321 322 321 320 321 321 320 320 317 316 317 318 318 304 301 301 308 312 320
321 320 316 314 316 317 316 318 320 321 321 321 321 323 321 321 320 320 319 319 319 316 316 317 317 318 314 299 297 300 306 319
320 316 316 313 315 316 318 316 319 320 320 320 321 322 320 321 321 321 320 319 318 318 317 316 317 318 318 315 313 312 305 309
318 317 317 315 314 314 314 317 319 319 320 320 321 321 321 320 319 319 321 321 318 320 319 318 317 317 318 310 312 318 318 311
318 316 316 315 314 313 314 317 320 320 319 320 320 320 320 320 317 313 297 301 302 303 304 313 318 305 297 297 296 296 298 301
316 318 316 316 314 314 314 318 320 320 320 320 320 318 321 319 317 317 316 308 298 298 297 300 305 302 295 295 295 296 295 305
312 317 316 315 313 310 314 319 320 320 320 307 321 321 321 319 318 317 318 316 315 316 299 301 296 293 293 293 294 300 313 312
309 309 307 307 307 307 307 310 320 319 320 320 322 322 321 318 318 316 315 314 315 316 311 303 294 291 292 292 295 318 318 318
302 302 303 304 305 307 307 306 312 319 320 309 313 322 320 319 318 316 314 313 313 316 317 317 306 307 312 309 309 316 318 319
303 302 302 304 303 307 307 305 306 310 317 317 309 322 321 321 320 318 317 314 313 313 317 313 296 319 318 317 314 316 318 318
298 300 301 302 301 307 308 305 305 309 314 316 316 319 321 321 321 322 319 317 316 314 314 311 291 315 320 319 319 319 320 322

GFSFLT2_sfc_thetae_027.txt.gz
Theta_e
324 327 331 331 331 331 331 331 331 332 332 332 333 333 333 334 333 332 331 331 331 332 331 330 331 332 332 333 326 327 329 332
324 327 331 330 330 329 330 330 331 331 331 331 331 332 332 331 331 331 331 331 331 330 331 332 333 333 333 331 330 329 327 332
324 325 328 329 328 328 329 329 330 330 329 330 330 331 331 330 330 331 331 330 330 333 333 332 332 332 325 328 331 329 326 330
324 327 328 328 328 328 328 328 329 330 329 329 330 330 330 330 330 330 330 329 332 332 331 330 330 327 303 307 320 329 328 327
325 328 329 329 328 329 327 328 330 330 329 330 330 330 329 328 329 328 329 331 331 328 331 328 328 329 301 304 310 328 326 326
329 330 329 330 331 330 329 329 330 330 329 329 330 329 328 328 328 329 330 332 328 328 329 327 329 322 303 304 310 328 326 324
331 331 331 331 330 330 329 329 330 330 329 329 329 328 327 327 327 330 332 329 327 328 329 327 329 324 303 303 316 325 324 322
331 331 331 331 331 330 328 329 330 329 330 330 329 328 328 328 329 330 332 333 328 328 327 328 316 325 301 303 318 325 323 322
331 331 329 331 331 330 328 328 328 331 332 331 330 330 329 330 331 331 331 332 329 329 327 328 327 322 318 301 308 326 324 320
329 329 330 331 329 329 328 328 331 331 331 330 330 330 328 329 330 331 331 331 329 328 327 327 325 322 305 301 303 310 313 321
330 329 329 329 329 329 328 330 330 329 330 329 330 330 329 330 330 330 328 330 329 326 326 325 323 322 315 298 299 302 307 321
329 329 327 327 328 328 330 329 330 330 330 329 327 329 329 330 330 330 329 328 327 326 325 325 324 322 318 321 317 315 305 309
328 328 328 327 327 328 329 329 329 330 330 330 330 330 329 330 330 328 331 332 325 327 327 327 325 322 321 314 318 322 321 314
323 326 327 327 326 327 327 328 330 330 329 329 328 329 329 329 328 325 296 301 300 301 305 316 324 306 299 298 297 298 299 301
320 322 324 324 324 324 326 327 329 330 330 330 329 326 329 329 328 327 325 312 295 295 297 299 303 303 295 295 295 296 297 305
313 314 316 318 318 317 321 325 327 329 331 309 330 329 330 330 328 327 328 326 326 326 300 301 294 294 294 293 295 302 317 316
310 310 310 312 314 313 316 319 326 327 328 328 329 330 330 326 329 326 327 326 325 327 322 305 296 291 291 293 298 325 322 321
304 305 306 310 311 313 315 317 324 327 328 310 316 330 329 329 328 327 324 325 324 325 327 327 311 308 316 314 322 328 327 326
302 302 302 304 307 313 314 316 319 326 327 327 312 329 329 329 329 328 327 324 323 324 326 324 301 327 326 324 324 327 328 328
301 300 298 301 302 309 312 310 316 322 325 327 326 327 329 329 329 329 329 328 326 325 325 320 291 324 329 329 328 328 329 330

GFSFLT2_sfc_thetae_030.txt.gz
Theta_e
327 332 336 337 339 339 340 340 340 341 341 341 341 341 341 340 339 339 337 336 334 333 333 333 332 333 335 336 334 333 329 332
326 330 331 335 337 337 337 337 338 337 338 338 338 339 339 338 337 336 334 333 333 333 333 332 333 334 336 336 333 335 334 334
325 327 330 331 334 335 334 334 334 335 333 333 334 336 336 335 334 334 333 333 332 333 333 333 335 336 332 336 335 335 330 333
325 328 329 329 333 332 332 330 329 330 330 331 333 333 333 334 334 334 333 333 334 333 333 332 334 331 306 307 320 331 334 333
325 330 329 329 332 332 328 328 330 331 331 331 332 332 331 332 331 331 331 334 334 334 334 332 333 335 304 304 311 330 330 330
326 330 332 332 333 331 329 330 330 330 330 330 331 329 329 329 329 330 333 333 335 335 334 334 334 329 305 304 309 330 327 326
333 333 334 332 332 328 329 329 330 329 328 330 329 329 328 329 328 331 334 334 334 335 333 334 334 331 304 304 318 326 324 322
331 333 334 334 332 330 329 329 329 327 328 329 330 329 327 328 330 331 334 334 333 331 333 335 320 330 302 305 318 326 323 322
334 334 333 333 331 330 329 330 327 330 331 331 330 331 330 331 332 334 332 332 332 333 332 334 331 327 321 304 309 326 323 321
334 332 332 334 331 329 328 329 331 330 330 330 331 332 331 331 332 333 332 333 332 332 332 331 329 330 306 304 304 310 313 323
334 331 332 332 330 329 329 331 330 331 330 331 332 332 331 333 334 334 334 335 331 331 330 327 326 325 317 299 300 302 307 322
332 330 328 327 328 330 331 332 330 331 330 331 333 332 331 333 333 333 335 335 331 330 328 327 327 323 321 320 319 318 307 314
330 327 325 325 328 329 331 332 332 331 331 332 333 331 332 333 335 331 335 335 327 332 331 329 328 323 323 316 318 322 324 316
331 329 325 325 327 328 330 331 332 332 331 330 329 331 331 330 330 329 297 299 298 300 301 316 327 310 300 298 300 298 300 301
327 331 330 327 326 327 329 330 331 332 330 331 329 326 330 328 330 330 328 315 296 295 298 297 304 303 296 296 297 297 298 303
320 324 328 331 329 327 329 330 330 331 332 312 329 328 330 328 328 329 328 329 327 327 301 301 295 295 294 294 296 302 316 316
315 317 321 322 323 322 327 329 330 330 331 329 330 329 330 326 327 329 328 328 329 329 324 309 298 292 292 294 299 323 322 323
312 311 314 318 319 321 323 329 331 331 331 313 317 331 331 330 329 325 327 327 328 330 329 327 317 313 318 316 325 325 327 327
305 305 307 311 314 320 320 325 330 328 328 330 312 331 330 330 329 328 325 325 325 327 330 326 305 329 329 327 328 330 330 330
301 303 302 305 307 317 319 319 325 331 329 328 328 327 328 329 330 331 330 327 325 324 327 322 294 327 330 330 330 331 332 333

GFSFLT2_sfc_thetae_033.txt.gz
Theta_e
330 337 336 338 339 341 342 343 343 344 344 343 343 342 344 345 341 342 340 338 336 335 333 332 332 333 335 337 335 335 335 333
328 332 334 336 337 337 338 339 341 341 340 340 340 341 341 340 339 339 337 335 333 333 333 332 332 332 334 335 335 334 335 332
325 329 332 335 335 336 336 336 337 338 336 336 338 339 338 337 336 335 334 334 333 332 332 333 333 336 332 336 335 334 334 334
326 329 331 332 333 334 333 333 333 334 332 332 333 333 332 334 334 335 334 332 335 334 333 333 335 330 306 309 324 334 332 331
325 328 330 332 332 333 331 329 330 330 331 331 331 332 331 332 332 332 331 335 336 336 334 333 335 331 306 308 314 333 334 333
326 331 331 333 332 331 330 330 330 329 330 329 330 328 329 330 331 330 336 336 336 335 334 335 336 325 306 306 311 332 331 331
330 333 334 334 331 329 330 329 329 329 329 328 328 328 328 327 328 331 335 334 335 335 335 335 334 329 305 308 321 327 324 325
332 333 332 333 330 331 329 328 329 328 328 329 329 329 328 329 331 332 335 334 333 332 334 335 320 329 304 306 318 325 322 321
335 335 330 332 330 331 328 329 327 329 329 330 328 329 329 333 335 335 334 332 333 334 333 334 332 328 321 305 308 325 324 323
330 329 329 331 331 329 328 329 330 332 330 328 329 331 327 330 334 333 332 334 333 333 333 330 330 329 307 304 306 311 314 323
330 329 331 330 330 329 330 331 331 329 330 330 331 330 331 332 334 334 333 333 330 331 331 328 326 326 316 300 301 304 307 323
331 330 329 327 327 330 332 330 329 329 328 329 331 330 331 334 333 335 336 336 334 333 330 329 327 323 321 323 320 318 308 315
329 329 327 325 327 331 330 330 330 328 330 329 331 328 332 334 332 329 336 329 325 334 332 331 327 324 322 316 318 324 324 315
328 327 326 325 328 331 331 329 331 329 327 329 327 328 329 330 330 328 297 299 296 296 298 317 327 310 302 302 299 299 302 302
323 324 324 326 327 329 330 331 331 330 332 331 328 325 329 327 329 328 326 315 297 295 296 298 307 302 298 297 296 298 298 303
331 325 325 327 327 326 329 330 331 329 333 312 328 327 326 330 330 328 328 326 326 325 301 303 296 295 295 295 296 303 319 317
324 323 325 324 326 327 328 329 330 329 328 327 328 329 328 325 328 328 329 329 326 325 321 308 298 293 293 295 298 324 323 324
314 314 318 322 324 326 328 329 330 330 328 312 316 329 328 327 328 325 327 328 328 327 327 325 317 316 318 318 322 325 326 327
307 308 311 313 319 322 326 331 332 328 328 328 312 328 326 327 325 325 327 327 327 326 327 325 307 328 325 324 325 326 327 328
304 304 306 309 314 322 325 323 325 329 328 326 326 327 327 327 327 327 325 324 325 328 328 322 297 324 329 329 329 328 328 330

GFSFLT2_sfc_thetae_036.txt.gz
Theta_e
330 331 332 336 336 339 340 340 341 342 342 343 342 341 339 338 338 342 343 342 342 338 337 335 333 334 334 337 335 334 333 332
330 333 334 336 335 337 337 339 341 341 340 339 338 338 339 339 341 341 339 338 337 335 336 333 334 333 335 335 334 333 333 331
329 331 333 335 334 336 335 336 339 341 338 336 337 338 338 339 338 338 337 336 335 334 335 332 335 329 330 334 336 334 332 329
326 329 329 330 333 332 333 336 337 338 337 337 337 337 336 336 336 333 336 336 335 331 332 332 333 327 306 309 324 333 332 331
320 328 329 333 330 331 333 333 334 333 332 332 332 333 331 331 332 332 335 335 334 332 331 332 331 324 305 307 314 333 333 331
320 330 331 334 329 331 331 330 329 329 329 328 330 330 330 331 331 332 335 334 335 334 333 333 329 319 305 308 315 331 332 332
327 331 332 333 327 329 329 329 329 328 328 328 330 330 329 329 330 332 334 333 333 334 334 334 328 323 305 309 320 327 328 328
324 330 331 334 327 331 329 328 329 328 328 328 330 329 329 330 330 333 334 334 334 334 332 333 318 324 304 307 317 322 320 320
325 330 330 332 331 332 329 329 329 329 328 329 328 329 329 330 332 333 333 334 333 332 331 331 329 325 317 306 309 325 323 322
331 329 328 330 332 331 329 329 331 331 328 327 330 332 329 331 332 334 333 334 331 330 328 328 327 325 308 306 307 310 314 322
329 330 329 328 331 331 330 332 332 328 328 329 329 328 329 332 333 333 329 333 331 330 327 326 323 321 316 300 301 304 304 321
329 328 324 328 331 333 332 330 331 330 330 329 329 330 330 332 333 334 334 334 333 331 328 327 322 320 322 320 317 315 308 310
328 326 324 328 330 331 329 331 329 330 329 329 328 330 329 325 317 315 328 315 323 330 330 328 323 320 321 315 317 322 320 313
326 326 325 326 328 329 329 330 330 329 327 329 328 328 332 329 326 320 297 296 296 296 302 321 326 309 300 299 300 301 302 300
322 325 324 329 329 329 329 328 329 331 328 331 324 326 327 327 327 325 319 309 297 295 296 303 305 302 297 297 299 298 296 301
326 323 325 329 328 328 329 330 330 329 327 311 325 329 329 327 327 326 326 325 323 320 299 299 295 295 295 295 295 303 315 313
322 325 325 325 327 327 329 328 331 326 327 326 326 330 329 325 329 328 328 327 323 319 314 306 298 293 293 295 296 324 323 323
313 312 315 317 319 323 325 327 331 331 325 313 316 329 328 328 327 328 327 327 324 324 323 317 313 314 317 316 319 323 323 326
310 310 312 314 314 321 324 324 329 329 326 323 313 323 326 329 328 328 329 328 326 327 325 319 304 323 320 321 322 325 326 327
305 304 304 310 311 316 324 319 320 328 326 327 326 325 324 324 328 328 330 328 327 326 327 316 296 326 324 325 325 327 328 329

GFSFLT2_sfc_thetae_042.txt.gz
Theta_e
302 302 304 312 315 329 331 333 334 337 338 337 338 338 337 335 337 338 336 336 335 337 336 334 334 333 331 328 326 325 325 324
300 302 308 312 316 327 335 336 337 338 337 337 336 337 337 337 339 339 337 337 336 334 334 333 333 330 327 327 325 324 324 325
302 308 309 319 320 323 333 335 337 337 335 336 334 335 336 335 334 333 333 332 331 328 327 326 327 327 327 328 327 325 323 323
305 311 311 318 324 327 333 334 335 335 334 334 334 333 332 329 328 326 326 323 326 324 323 323 322 320 304 313 321 323 323 322
312 313 311 318 318 324 329 333 334 334 332 333 332 330 329 327 326 324 322 322 323 323 323 321 318 314 303 305 312 323 321 321
315 317 318 320 322 320 326 333 333 332 331 331 330 328 326 323 324 322 323 326 326 324 321 318 315 314 304 306 312 323 322 321
316 318 319 321 320 322 328 330 330 329 328 328 327 324 322 325 326 325 326 327 324 320 317 316 317 317 303 306 316 320 318 317
314 317 318 320 321 323 325 325 325 324 324 324 324 325 326 325 326 325 324 321 323 322 319 317 311 316 302 303 314 320 319 317
318 318 316 316 320 324 322 323 322 323 324 323 323 326 325 326 325 324 321 323 322 319 317 316 317 317 311 301 307 318 319 318
321 319 320 322 324 323 320 320 323 324 324 323 322 323 327 326 324 320 322 322 320 319 318 318 319 317 306 302 304 309 311 317
321 319 320 321 325 322 320 321 325 325 323 321 322 324 326 325 323 321 321 322 320 318 316 316 317 316 311 299 300 300 305 316
320 320 319 320 325 323 323 324 324 324 322 320 319 322 321 320 322 322 322 321 320 319 316 316 317 316 314 313 311 309 303 306
323 320 321 322 324 322 324 324 324 322 320 321 323 320 317 312 307 310 320 318 318 321 318 318 317 315 313 310 312 315 316 309
320 322 324 325 323 324 323 325 324 321 320 323 322 318 317 313 311 307 294 295 298 300 306 313 316 306 300 301 299 298 299 301
319 323 322 324 323 323 323 324 323 321 320 321 320 320 318 316 316 314 309 303 298 295 298 299 301 300 297 297 296 295 295 302
321 321 322 323 323 323 324 325 322 321 322 313 321 320 319 316 316 316 317 317 316 310 297 297 295 295 296 294 294 301 312 310
319 315 314 316 320 322 324 324 323 321 321 321 323 323 320 317 317 317 316 316 313 309 308 300 294 292 293 294 296 314 316 316
310 309 308 309 312 317 324 323 321 320 321 311 316 322 320 320 318 317 315 315 315 316 315 311 305 306 308 308 310 313 316 318
305 304 305 307 308 313 318 320 320 322 321 318 312 323 321 321 319 317 316 317 316 315 315 306 291 313 311 311 312 316 319 317
301 303 303 305 307 313 315 315 318 321 321 320 322 322 323 322 320 319 319 318 317 316 314 308 293 315 315 315 315 310 306 305

GFSFLT2_sfc_thetae_045.txt.gz
Theta_e
300 301 301 301 307 311 315 322 321 322 327 330 332 332 331 330 331 333 334 334 336 336 335 334 334 331 329 329 329 326 323 323
301 300 300 306 311 317 316 328 326 330 333 333 333 332 333 333 334 335 334 335 334 334 334 333 333 332 331 329 327 323 323 323
301 300 304 307 315 321 321 331 332 333 334 334 335 334 335 337 336 335 334 334 334 333 331 330 330 329 328 324 323 322 321 321
301 304 307 309 314 321 325 332 333 335 333 333 334 334 334 335 334 332 331 328 329 329 326 326 322 321 307 313 320 322 322 321
306 307 308 309 315 319 319 330 333 332 331 332 331 330 329 329 328 327 326 325 323 321 319 318 316 315 303 306 311 321 320 319
307 312 313 315 317 317 319 319 318 331 330 329 329 328 325 325 325 324 323 322 319 318 317 318 316 313 303 303 309 320 318 319
309 314 315 318 319 320 318 319 318 325 328 328 328 326 324 324 323 324 322 321 318 317 318 317 317 316 302 302 314 317 316 320
307 315 318 317 321 320 320 320 321 327 328 327 325 326 325 323 324 322 321 321 320 319 316 319 313 316 300 302 312 317 317 318
309 316 317 318 320 321 320 318 324 327 326 324 324 324 323 322 321 324 324 321 317 316 315 316 318 313 308 300 306 319 318 315
310 316 316 319 318 318 319 318 323 322 322 321 322 323 324 325 323 323 322 318 317 315 316 318 318 316 305 301 302 308 309 317
314 318 316 318 322 322 320 321 322 321 321 320 323 324 324 324 322 321 320 319 317 316 316 316 316 316 310 298 298 301 304 316
317 318 316 318 322 323 322 323 322 321 320 320 322 323 322 323 323 322 320 318 317 316 316 316 316 315 314 313 312 310 303 305
318 319 320 320 322 321 323 323 322 321 319 320 321 321 318 310 304 309 319 315 316 318 317 317 316 314 314 309 311 314 314 308
320 320 321 321 323 323 321 323 322 320 319 319 316 315 315 311 311 307 295 297 300 302 305 312 314 303 298 298 297 297 298 300
319 320 321 324 321 322 322 322 321 321 320 318 315 314 314 313 313 314 310 302 296 296 296 297 301 300 296 295 295 294 297 305
318 318 318 322 323 319 321 321 321 321 319 308 319 317 316 316 315 315 317 319 315 310 296 297 295 294 294 294 295 303 313 311
315 313 313 319 319 318 321 322 321 321 321 320 319 318 316 314 316 318 318 317 315 308 306 300 294 292 293 294 298 315 314 314
308 306 308 310 311 312 321 321 321 321 320 306 312 318 317 316 315 316 315 315 314 314 313 308 305 308 310 310 313 315 317 317
306 305 305 306 306 311 319 320 320 320 319 318 308 319 318 317 316 316 317 317 316 314 311 306 294 312 312 313 315 310 309 311
304 303 300 301 303 310 312 317 319 320 321 321 321 320 319 317 317 318 317 317 315 313 312 303 290 314 315 308 305 302 301 302

GFSFLT2_sfc_thetae_048.txt.gz
Theta_e
298 299 300 301 302 303 306 310 315 319 318 315 318 322 325 327 329 331 333 334 335 336 336 337 336 335 335 333 332 330 329 327
298 299 300 302 303 305 309 316 320 324 323 323 325 327 328 330 332 333 334 336 335 336 337 336 335 333 333 332 331 330 327 327
298 301 305 306 307 308 310 318 323 328 328 329 329 331 332 333 333 334 335 336 336 336 334 335 334 333 331 330 328 327 326 326
303 305 306 308 311 310 312 319 328 332 331 331 333 333 335 334 333 334 334 332 333 333 332 332 331 326 308 312 322 326 325 326
302 304 307 307 310 312 316 320 330 333 333 333 334 335 333 333 333 331 329 329 331 329 327 327 323 317 304 305 310 326 326 325
302 304 305 307 311 317 318 321 328 331 332 332 332 332 331 331 330 328 327 325 323 322 321 320 318 312 301 302 307 325 325 324
302 304 306 308 312 318 317 319 319 329 328 328 328 328 327 327 326 325 323 321 319 318 319 320 318 316 301 301 315 322 321 322
303 305 307 307 314 318 317 319 319 327 328 327 327 327 327 326 325 322 321 319 318 319 319 320 313 316 300 301 314 320 319 320
306 307 307 311 318 321 318 318 320 328 327 326 326 326 326 325 324 322 320 319 318 317 317 319 318 315 309 300 305 322 320 320
307 308 311 314 319 320 318 316 322 327 325 325 324 324 325 324 323 321 319 319 317 317 318 318 318 316 305 300 302 308 311 319
311 313 313 315 318 319 318 318 318 324 324 323 323 323 324 324 322 320 318 318 317 316 316 317 317 316 310 297 297 299 305 316
313 314 315 313 318 317 321 321 323 323 321 322 322 322 322 324 322 321 319 317 317 317 317 317 317 316 315 314 312 310 303 305
312 314 318 320 321 322 321 323 322 321 322 322 322 322 318 308 304 314 319 319 318 318 318 318 317 316 316 310 311 316 315 308
312 320 320 320 321 320 321 322 322 321 320 320 319 317 314 313 312 309 295 298 301 302 305 313 314 304 298 297 297 297 298 301
317 319 321 322 321 320 322 322 322 321 317 317 315 315 316 314 315 315 310 301 294 294 295 296 299 296 294 295 295 295 296 305
314 316 321 320 319 319 321 323 322 320 317 306 317 316 317 316 316 316 317 317 313 308 295 296 293 293 294 295 297 304 313 311
312 313 314 318 319 319 323 322 321 320 320 319 319 318 318 315 318 318 319 317 312 306 306 299 295 293 294 298 300 316 314 314
306 304 307 310 313 315 322 323 322 321 318 305 311 318 317 318 319 318 316 314 313 313 309 306 307 310 312 312 315 316 316 315
304 302 301 304 306 314 320 322 321 320 318 317 308 318 316 317 317 317 317 316 314 312 310 307 295 314 312 308 306 304 305 307
303 302 300 301 304 311 320 322 322 321 320 320 320 317 317 318 318 318 317 315 314 312 311 301 292 310 305 301 300 300 299 299